AirNav  
 
 850 users online  

5I2 Flora Municipal Airport
Flora, Indiana, USA

GOING TO FLORA?


FAA INFORMATION EFFECTIVE 29 MARCH 2018

Location

FAA Identifier: 5I2
Lat/Long: 40-32-23.1300N / 086-32-53.9990W
40-32.385500N / 086-32.899983W
40.5397583 / -86.5483331
(estimated)
Elevation: 710 ft. / 216 m (estimated)
Variation: 02W (1985)
From city: 2 miles SW of FLORA, IN
Time zone: UTC -4 (UTC -5 during Standard Time)
Zip code: 46929

Airport Operations

Airport use: Open to the public
Activation date: 02/1967
Control tower: no
ARTCC: CHICAGO CENTER
FSS: TERRE HAUTE FLIGHT SERVICE STATION
NOTAMs facility: HUF (NOTAM-D service available)
Attendance: UNATNDD
Wind indicator: lighted
Segmented circle: no
Lights: SS-SR

Airport Communications

CTAF: 122.9
WX AWOS-3P at GGP (13 nm NE): 118.5 (574-737-7310)
WX AWOS-3P at MCX (14 nm NW): 124.05 (574-583-0531)
WX AWOS-3 at FKR (16 nm S): 124.325 (765-654-0328)
WX ASOS at LAF (19 nm SW): PHONE 765-743-9687

Nearby radio navigation aids

VOR radial/distance  VOR name  Freq  Var
GUSr253/19.1GRISSOM VORTAC108.4502W
OKKr277/22.4KOKOMO VORTAC113.5005W
BVTr091/23.8BOILER VORTAC115.1001E
MZZr277/39.7MARION VOR/DME108.6003W

 
NDB name  Hdg/Dist  Freq  Var  ID
CRAWFORDSVILLE031/37.538804WCFJ -.-. ..-. .---

Airport Services

Parking: tiedowns
Airframe service: NONE
Powerplant service: NONE
Bottled oxygen: NONE
Bulk oxygen: NONE

Runway Information

Runway 9/27

Dimensions: 2143 x 93 ft. / 653 x 28 m
Surface: turf, in good condition
Runway edge lights: low intensity
RUNWAY 9  RUNWAY 27
Latitude: 40-32.418833N40-32.418833N
Longitude: 086-33.151833W086-32.681167W
Elevation: 710.0 ft.710.0 ft.
Traffic pattern: leftleft
Runway end identifier lights: nono
Obstructions: 15 ft. road, 285 ft. from runway, 20:1 slope to clear10 ft. crops, 200 ft. from runway, 20:1 slope to clear

Airport Ownership and Management from official FAA records

Ownership: Publicly-owned
Owner: TOWN OF FLORA
4 EAST MAIN ST
FLORA, IN 46929
Phone 574-967-4844
Manager: JORETTA TINSMAN
4 EAST MAIN ST
FLORA, IN 46929
Phone (574) 967-4844

Airport Operational Statistics

Aircraft based on the field: 7
Single engine airplanes: 4
Ultralights: 3
    
Aircraft operations: avg 38/week *
75% local general aviation
25% transient general aviation
* for 12-month period ending 31 December 2016

Instrument Procedures

There are no published instrument procedures at 5I2.

Some nearby airports with instrument procedures:

KGGP - Logansport/Cass County Airport (13 nm NE)
KMCX - White County Airport (14 nm NW)
KFKR - Frankfort Municipal Airport (16 nm S)
KGUS - Grissom Air Reserve Base (19 nm E)
KLAF - Purdue University Airport (19 nm SW)
 
Loc | Ops | Rwys | IFR | FBO | Links
Com | Nav | Svcs | Stats | Notes

AirNav Hotels Sweepstakes
 
Area around 5I2 (Flora Municipal Airport)
 
Road maps at: MapQuest Bing Google
 
Aerial photo
WARNING: Photo may not be current or correct
Aerial photo of 5I2 (Flora Municipal Airport)
Do you have a better or more recent aerial photo of Flora Municipal Airport that you would like to share? If so, please send us your photo.

 
Sectional chart

 
Airport distance calculator
Flying to Flora Municipal Airport? Find the distance to fly.

From to 5I2

Sunrise and sunset
Times for 21-Apr-2018
 Local
(UTC-4)
 Zulu
(UTC)
Morning civil twilight06:3110:31
Sunrise07:0011:00
Sunset20:3000:30
Evening civil twilight20:5900:59

Current date and time
Zulu (UTC)  22-Apr-2018 00:51:34
Local (UTC-4)  21-Apr-2018 20:51:34
 
METAR
KGGP 
13nm NE 
220035Z AUTO 07006KT 10SM SCT110 10/M03 A3035 RMK AO2
KMCX 
14nm NW 
220035Z AUTO 07006KT 10SM OVC100 12/M05 A3033 RMK AO2 T01191047
KFKR 
16nm S 
220035Z AUTO 09010KT 10SM CLR 13/M02 A3034 RMK AO2 T01301021
KGUS 
19nm E 
212356Z 07012KT 10SM FEW090 SCT110 OVC150 12/M05 A3034 RMK AO2A SLP285 ALSTG/SLP ESTMD 56010 RVRNO PWINO VISNO RWY23 $
KLAF 
20nm W 
212354Z 07012G18KT 10SM CLR 12/M04 A3032 RMK AO2 SLP269 T01221044 10156 20122 57002
KOKK 
22nm E 
212356Z AUTO 06009KT 10SM BKN100 BKN120 11/M02 A3035 RMK AO2 SLP282 T01111017 10144 20111 58007
TAF
KGUS 
19nm E 
211905Z 2119/2301 07009KT 9999 BKN090 OVC160 510603 QNH3032INS BECMG 2215/2216 08012G18KT 9999 FEW060 BKN110 QNH3024INS BECMG 2222/2223 07012KT 9999 BKN090 OVC190 QNH3024INS TX15/2121Z TN05/2211Z
KLAF 
20nm W 
212019Z 2120/2218 10008KT P6SM SCT100 BKN250 FM220000 07008KT P6SM BKN200
NOTAMs
Click for the latest NOTAMs
NOTAMs are issued by the DoD/FAA and will open in a separate window not controlled by AirNav.

 

 
 

Would you like to see your business listed on this page?

 If your business provides an interesting product or service to pilots, flight crews, aircraft, or users of the Flora Municipal Airport, you should consider listing it here.  To start the listing process, click on the button below
 
Add a business
 

Other Pages about Flora Municipal Airport

Update a link
 
Copyright © AirNav, LLC. All rights reserved. Privacy Policy  Contact